Date,TemperatureHighF,TemperatureAvgF,TemperatureLowF,DewpointHighF,DewpointAvgF,DewpointLowF,HumidityHigh,HumidityAvg,HumidityLow,PressureMaxIn,PressureMinIn,WindSpeedMaxMPH,WindSpeedAvgMPH,GustSpeedMaxMPH,PrecipitationSumIn
2013-5-1,69.3,63.0,58.5,57.3,54.2,52.3,88,74,58,30.14,30.03,21,6,21,0.00
2013-5-2,66.2,59.3,57.4,57.5,54.6,53.1,90,84,70,30.14,30.07,19,7,19,0.00
2013-5-3,61.3,57.4,55.9,55.6,53.7,51.1,94,88,70,30.08,29.92,21,8,21,0.26
2013-5-4,56.3,51.9,48.0,53.1,48.9,44.1,95,90,66,29.93,29.76,26,10,27,1.80
2013-5-5,60.8,53.8,49.3,54.9,51.4,47.6,95,91,79,29.80,29.69,21,6,24,2.36
2013-5-6,59.2,50.5,43.3,50.0,46.4,42.8,98,86,66,29.83,29.71,12,3,12,0.04
2013-5-7,72.0,59.3,46.8,53.6,50.0,45.4,96,73,47,29.89,29.78,14,3,14,0.09
2013-5-8,79.3,65.0,51.8,57.4,53.5,49.6,93,69,43,29.98,29.85,15,4,16,0.00
2013-5-9,85.1,69.6,53.4,66.3,56.2,50.7,92,65,39,30.05,29.94,14,3,14,0.07
2013-5-10,81.1,67.9,55.0,62.3,57.4,52.5,92,71,50,30.03,29.89,15,2,17,0.00
2013-5-11,79.3,68.1,59.0,62.5,58.8,55.0,90,73,53,29.93,29.81,17,4,18,0.01
2013-5-12,72.3,61.6,50.0,58.6,43.0,22.2,90,56,16,30.00,29.83,24,6,24,0.01
2013-5-13,70.5,57.1,40.3,40.4,32.4,18.7,78,44,15,30.13,29.99,23,5,26,0.00
2013-5-14,80.2,62.6,40.6,55.1,44.5,33.6,80,54,34,30.19,30.03,16,4,16,0.00
2013-5-15,89.2,73.0,58.3,61.1,55.4,52.1,82,57,32,30.07,29.94,17,5,22,0.00
2013-5-16,87.1,67.6,60.1,62.5,57.2,54.2,83,70,43,30.02,29.92,8,2,8,0.00
2013-5-17,85.5,72.6,57.4,63.6,57.7,54.0,90,62,39,30.04,29.95,14,3,14,0.00
2013-5-18,78.3,68.4,63.0,64.8,62.1,57.2,92,81,59,30.04,29.97,12,2,14,0.32
2013-5-19,73.8,67.0,63.7,67.4,63.6,61.3,95,89,76,30.04,29.93,9,2,9,1.52
2013-5-20,88.2,73.1,61.9,69.1,64.3,59.9,94,76,50,30.05,29.94,9,2,9,0.01
2013-5-21,93.4,77.3,65.7,69.4,65.5,60.4,93,70,40,29.99,29.86,11,3,11,0.15
2013-5-22,86.2,71.9,63.1,69.1,64.3,60.2,92,78,55,29.95,29.80,14,2,14,0.17
2013-5-23,86.0,73.3,64.2,67.3,60.7,52.5,94,68,43,29.91,29.83,19,5,26,0.50
2013-5-24,79.9,67.2,55.4,54.3,48.2,40.0,79,53,25,30.12,29.89,26,9,26,0.00
2013-5-25,81.9,64.5,43.3,50.3,44.1,38.2,84,51,25,30.24,30.09,13,3,17,0.00
2013-5-26,85.6,67.6,50.2,55.7,48.1,41.1,75,52,32,30.20,30.07,12,2,14,0.00
2013-5-27,87.3,72.2,54.9,62.1,56.9,48.8,87,61,40,30.17,30.06,12,2,12,0.00
2013-5-28,87.3,74.2,60.8,65.5,60.6,55.9,84,64,44,30.15,30.07,11,3,11,0.00
2013-5-29,85.5,72.3,59.0,64.8,60.8,55.8,90,69,48,30.18,30.08,12,2,14,0.00
2013-5-30,86.2,72.7,61.9,66.0,62.2,58.0,89,71,48,30.20,30.08,10,2,10,0.00
2013-5-31,87.3,75.6,65.8,66.9,63.7,61.2,87,68,46,30.16,30.03,11,3,11,0.00